Regional Weather Roundup
Issued by NWS

Home | Current Version | Previous Version | Graphics & Text | Print | Product List | Glossary On
Versions: 1 2 3 4 5 6 7 8 9 10 11 12 13 14 15 16 17 18 19 20 21 22 23 24 25 26 27 28 29 30 31 32 33 34 35 36 37 38 39 40 41 42 43 44 45 46 47 48 49 50
000
ASUS43 KMPX 020810
RWRMN
WEATHER ROUNDUP FOR MINNESOTA
NATIONAL WEATHER SERVICE TWIN CITIES/CHANHASSEN MN
300 AM CDT MON MAY 02 2016


NOTE: "FAIR" INDICATES FEW OR NO CLOUDS BELOW 12,000 FEET WITH NO
SIGNIFICANT WEATHER AND/OR OBSTRUCTIONS TO VISIBILITY. N/A MEANS
CURRENT SKY AND/OR WEATHER CONDITIONS ARE NOT AVAILABLE.

MNZ060>063-068>070-020900-
   Twin Cities Metro

CITY           SKY/WX    TMP DP  RH WIND       PRES   REMARKS
TWIN CITIES    CLEAR     45  36  70 NW3       30.12S
ST PAUL        CLEAR     44  37  76 CALM      30.13S
CRYSTAL        CLEAR     42  35  76 CALM      30.11S
BLAINE         CLEAR     43  37  81 CALM      30.12S
EDEN PRAIRIE   CLEAR     46  35  65 CALM      30.11S
SOUTH ST PAUL  CLEAR     43  33  69 CALM      30.12S
LAKE ELMO      FAIR      37  34  87 CALM      30.12S
$$
MNZ001>005-007-008-013>017-022>024-027-028-020900-
   Northwest Minnesota

CITY           SKY/WX    TMP DP  RH WIND       PRES   REMARKS
BEMIDJI        CLOUDY    33  30  86 CALM      30.09F
HALLOCK        CLOUDY    45  30  57 S7        30.07F
ROSEAU         CLOUDY    43  34  70 S3        30.08F
WARROAD        PTCLDY    45  32  61 S3        30.09S
THIEF RVR FALL MOCLDY    46  25  42 SE3       30.09F
CROOKSTON      CLOUDY    46  34  61 S6        30.08F
FOSSTON        CLOUDY    36  25  64 CALM      30.09F
DETROIT LAKES  MOCLDY    45  34  65 CALM      30.11F
MOORHEAD       CLOUDY    43  34  70 CALM      30.10S
PARK RAPIDS    CLEAR     39  31  72 CALM      30.10F
MAHNOMEN       FAIR      40  31  68 S5        30.09F
$$
MNZ006-009>011-018-025>026-020900-
   North Central Minnesota

CITY           SKY/WX    TMP DP  RH WIND       PRES   REMARKS
BAUDETTE       PTCLDY    37  29  72 CALM      30.08F
FLAG ISLAND    MOCLDY    45  30  57 CALM      30.08F
INTL FALLS     CLEAR     31  27  85 CALM      30.09F
WASKISH        CLOUDY    36  34  93 CALM      30.09S
BIG FORK       CLEAR     30  28  93 CALM      30.10F
LONGVILLE      CLEAR     32  30  93 CALM      30.10F
GRAND RAPIDS   CLEAR     37  28  70 SE5       30.12F
CRANE LAKE     CLEAR     27  27 100 CALM      30.13S
ORR            CLEAR     39  28  65 CALM      30.09S
COOK           CLEAR     30  27  86 CALM      30.11F
WALKER         FAIR      34  32  92 CALM      30.10S
$$
MNZ012-019>021-037-020900-
   Northeast Minnesota

CITY           SKY/WX    TMP DP  RH WIND       PRES   REMARKS
DULUTH         CLEAR     34  29  82 CALM      30.12S
ELY            CLEAR     32  28  86 CALM      30.11F
HIBBING        PTCLDY    27  26  96 NW3       30.12S
EVELETH        CLEAR     30  30 100 CALM      30.13S
DULUTH HARBOR  CLEAR     37  36  93 CALM      30.15F
TWO HARBORS    CLEAR     34  28  80 CALM      30.11F
SILVER BAY     CLEAR     28  27  93 CALM      30.11F
GRAND MARAIS     N/A     33  30  88 CALM      30.14S
G MARAIS ARPRT PTCLDY    28  25  86 CALM      30.12F
$$
MNZ029>031-032-039>041-046>048-054>057-064-020900-
   West Central Minnesota

CITY           SKY/WX    TMP DP  RH WIND       PRES   REMARKS
FERGUS FALLS   CLEAR     43  36  75 S3        30.09S
WHEATON        CLEAR     45  37  76 CALM      30.13F
MORRIS         CLEAR     43  30  61 S6        30.11F
ALEXANDRIA     CLEAR     41  32  70 S3        30.13S
ELBOW LAKE     FAIR      40  32  71 S7        30.11F
WADENA         CLEAR     37  30  75 CALM      30.11S
GLENWOOD       CLEAR     45  30  57 S5        30.13S
APPLETON       CLEAR     37  34  87 CALM      30.13S
BENSON         CLEAR     36  32  87 CALM      30.13F
ORTONVILLE     CLEAR     41  34  75 CALM      30.12F
MADISON        CLEAR     39  34  81 W3        30.13F
WILLMAR        FAIR      37  34  87 CALM      30.14F
$$
MNZ033>034-036-042>043-049>051-058-059-020900-
   Central Minnesota

CITY           SKY/WX    TMP DP  RH WIND       PRES   REMARKS
ST CLOUD       CLEAR     36  32  85 CALM      30.12F
SAUK CENTRE    FAIR      35  32  88 CALM      30.13F
PAYNESVILLE    CLEAR     35  33  93 CALM      30.14S
AITKIN         PTCLDY    34  30  86 CALM      30.11S
PINE RIVER     CLEAR     34  30  86 CALM      30.14F
BRAINERD       CLEAR     34  30  85 CALM      30.12S
STAPLES        CLEAR     39  30  70 CALM      30.11F
LONG PRAIRIE   FAIR      36  32  87 CALM      30.13F
LITTLE FALLS   CLEAR     34  32  93 CALM      30.13S
LITCHFIELD     CLEAR     41  37  87 CALM      30.14S
BUFFALO        CLEAR     39  34  82 CALM      30.13F
MAPLE LAKE     CLEAR     36  34  93 CALM      30.14S
HUTCHINSON     CLOUDY    37  35  91 CALM      30.14S
$$
MNZ037-044-045-052-053-020900-
   East Central Minnesota

CITY           SKY/WX    TMP DP  RH WIND       PRES   REMARKS
PRINCETON      CLEAR     36  34  93 CALM      30.13S
MORA           CLEAR     34  32  93 CALM      30.14F
CAMBRIDGE      CLEAR     36  28  75 CALM      30.11S
RUSH CITY      CLEAR     37  32  82 CALM      30.13S
MOOSE LAKE     PTCLDY    32  32 100 CALM      30.12S
HINCKLEY       FAIR      36  32  87 CALM      30.13S
CLOQUET        CLEAR     30  28  93 CALM      30.12F
MCGREGOR       PTCLDY    36  32  87 CALM      30.13S
$$
MNZ071>073-080-081-089-090-097-098-020900-
   Southwest Minnesota

CITY           SKY/WX    TMP DP  RH WIND       PRES   REMARKS
MONTEVIDEO     CLEAR     43  30  61 W3        30.15S
GRANITE FALLS  CLEAR     39  33  78 SW6       30.15S
CANBY          CLEAR     44  36  71 SW5       30.14F
MARSHALL       CLEAR     40  32  73 W3        30.14F
REDWOOD FALLS  CLEAR     38  33  82 E5        30.14R
OLIVIA         CLEAR     39  32  75 CALM      30.13S
PIPESTONE      CLEAR     41  34  75 CALM      30.14F
WINDOM         PTCLDY    39  37  93 CALM      30.14S
WORTHINGTON    CLEAR     39  35  86 W8        30.14F
JACKSON        CLEAR     41  34  75 W5        30.14S
TRACY          CLEAR     42  35  75 W7        30.14F
SLAYTON        CLEAR     38  34  86 W6        30.15F
$$
MNZ065>067-074>077-082>085-091>093-020900-
   South Central Minnesota

CITY           SKY/WX    TMP DP  RH WIND       PRES   REMARKS
MANKATO        CLEAR     45  34  65 N3        30.12S
NEW ULM        CLEAR     39  34  81 CALM      30.13S
ST JAMES       MOCLDY    36  34  93 NW6       30.14S
FAIRMONT       CLEAR     43  34  70 NW6       30.11F
GLENCOE        CLEAR     40  37  88 CALM      30.12S
FARIBAULT      CLEAR     39  34  81 CALM      30.12S
OWATONNA       CLEAR     39  37  93 CALM      30.11F
WASECA         PTCLDY    39  34  81 N5        30.12F
ALBERT LEA     PTCLDY    45  41  87 SW2       30.11F
$$
MNZ078>079-086>088-094>096-020900-
   Southeast Minnesota

CITY           SKY/WX    TMP DP  RH WIND       PRES   REMARKS
ROCHESTER      CLOUDY    45  41  86 W9        30.11F
RED WING       CLEAR     39  36  87 CALM      30.10F
STANTON        CLOUDY    39  35  88 S3        30.10F
DODGE CENTER   MOCLDY    39  39 100 W3        30.11S
WINONA         CLEAR     43  41  93 CALM      30.13R
AUSTIN         CLEAR     43  39  87 CALM      30.12R
PRESTON        CLOUDY    44  39  81 CALM      30.12S
$$
ABBREVIATIONS USED IN REMARKS
   TC - TEMPERATURES IN CELSIUS
  WCI - WIND CHILL INDEX
   HX - HEAT INDEX
  VSB - VISIBILITY
$$




USA.gov is the U.S. government's official web portal to all federal, state and local government web resources and services.